Location: Unspecified
(44.4377°N, 88.0525°W)
Time: 14:08:51
(UTC-05:00)

Cosmos 1674 - Visible Passes

Search period start: 22 May 2015 00:00
Search period end: 01 June 2015 00:00
Orbit: 507 x 532 km, 82.5° (Epoch: 22 May)

Date Brightness Start Highest point End Pass type
(mag) Time Alt. Az. Time Alt. Az. Time Alt. Az.
22 May 5.4 01:15:20 11° E 01:15:34 11° E 01:17:01 10° ENE visible
22 May 2.9 02:50:25 49° WSW 02:50:57 54° WNW 02:54:49 10° N visible
23 May 2.7 02:36:46 61° WSW 02:37:07 65° W 02:41:03 10° N visible
24 May 2.6 02:23:05 74° WSW 02:23:18 77° W 02:27:15 10° N visible
25 May 2.6 02:09:24 86° S 02:09:28 90° ESE 02:13:25 10° N visible
26 May 2.7 01:55:41 76° E 01:55:41 76° E 01:59:35 10° NNE visible
27 May 2.9 01:41:57 63° E 01:41:57 63° E 01:45:43 10° NNE visible
27 May 5.2 03:17:07 10° W 03:18:10 11° WNW 03:19:00 10° NW visible
28 May 3.2 01:28:13 53° E 01:28:13 53° E 01:31:49 10° NNE visible
28 May 5.0 03:03:17 12° W 03:04:14 12° WNW 03:05:51 10° NW visible
29 May 3.5 01:14:27 44° E 01:14:27 44° E 01:17:56 10° NNE visible
29 May 4.9 02:49:32 14° W 02:50:17 14° WNW 02:52:24 10° NW visible
30 May 3.8 01:00:40 37° E 01:00:40 37° E 01:03:59 10° NNE visible
30 May 4.8 02:35:45 16° W 02:36:21 16° WNW 02:38:51 10° NNW visible
31 May 4.0 00:46:52 32° E 00:46:52 32° E 00:50:01 10° NNE visible
31 May 4.6 02:21:57 19° W 02:22:25 19° WNW 02:25:13 10° NNW visible
